Location: Hilton Head Island
(32.2163°N, 80.7526°W)
Time: 20:52:38
(UTC-04:00)

Tiros 1 despin weight - Pass Details

Date: 23 February 2026
Orbit: 556 x 593 km, 48.2° (Epoch: 10 March)

Event Time Altitude Azimuth Distance (km) Brightness Sun altitude
Rises 12:01:29 0° 223° (SW) 2,764 ? 47.3°
Reaches altitude 10° 12:03:45 10° 221° (SW) 1,863 ? 47.4°
Maximum altitude 12:07:59 70° 138° (SE) 601 ? 47.6°
Drops below altitude 10° 12:12:12 10° 55° (NE) 1,849 ? 47.7°
Sets 12:14:27 0° 53° (NE) 2,742 ? 47.8°
